TimeCST,TemperatureF,Dew PointF,Humidity,Sea Level PressureIn,VisibilityMPH,Wind Direction,Wind SpeedMPH,Gust SpeedMPH,PrecipitationIn,Events,Conditions,WindDirDegrees,DateUTC
12:15 AM,60.8,53.6,77,29.98,10.0,SSE,5.8,-,N/A,,Clear,150,2012-12-03 06:15:00
12:55 AM,60.8,53.6,77,29.98,10.0,SSE,5.8,-,N/A,,Clear,150,2012-12-03 06:55:00
1:15 AM,60.8,53.6,77,29.98,10.0,SSE,5.8,-,N/A,,Clear,160,2012-12-03 07:15:00
1:35 AM,59.0,53.6,82,29.98,10.0,SSE,5.8,-,N/A,,Clear,160,2012-12-03 07:35:00
1:55 AM,60.8,55.4,82,29.98,10.0,South,5.8,-,N/A,,Clear,170,2012-12-03 07:55:00
2:15 AM,60.8,55.4,82,29.98,10.0,SSE,5.8,-,N/A,,Clear,160,2012-12-03 08:15:00
2:35 AM,60.8,55.4,82,29.98,10.0,SSE,5.8,-,N/A,,Clear,160,2012-12-03 08:35:00
2:55 AM,60.8,55.4,82,29.98,10.0,South,8.1,-,N/A,,Clear,170,2012-12-03 08:55:00
3:15 AM,60.8,55.4,82,29.97,10.0,SSE,6.9,-,N/A,,Clear,160,2012-12-03 09:15:00
3:35 AM,60.8,55.4,82,29.97,10.0,South,8.1,-,N/A,,Clear,180,2012-12-03 09:35:00
3:55 AM,60.8,55.4,82,29.96,10.0,South,9.2,-,N/A,,Clear,180,2012-12-03 09:55:00
4:15 AM,60.8,55.4,82,29.96,10.0,South,10.4,-,N/A,,Clear,170,2012-12-03 10:15:00
4:35 AM,60.8,55.4,82,29.95,10.0,South,10.4,-,N/A,,Clear,170,2012-12-03 10:35:00
4:55 AM,60.8,55.4,82,29.95,10.0,South,9.2,-,N/A,,Clear,180,2012-12-03 10:55:00
5:15 AM,60.8,55.4,82,29.94,10.0,South,9.2,-,N/A,,Clear,170,2012-12-03 11:15:00
5:55 AM,60.8,55.4,82,29.93,10.0,South,9.2,-,N/A,,Clear,170,2012-12-03 11:55:00
6:15 AM,60.8,55.4,82,29.93,10.0,SSE,9.2,-,N/A,,Clear,160,2012-12-03 12:15:00
6:35 AM,60.8,55.4,82,29.93,10.0,South,10.4,-,N/A,,Clear,170,2012-12-03 12:35:00
7:15 AM,60.8,55.4,82,29.92,10.0,South,11.5,17.3,N/A,,Clear,170,2012-12-03 13:15:00
7:35 AM,60.8,55.4,82,29.92,10.0,South,10.4,-,N/A,,Clear,180,2012-12-03 13:35:00
7:55 AM,60.8,55.4,82,29.92,10.0,South,13.8,18.4,N/A,,Clear,180,2012-12-03 13:55:00
8:15 AM,62.6,55.4,77,29.93,10.0,SSW,10.4,16.1,N/A,,Partly Cloudy,200,2012-12-03 14:15:00
8:35 AM,62.6,57.2,82,29.92,10.0,South,13.8,17.3,N/A,,Clear,190,2012-12-03 14:35:00
9:15 AM,66.2,57.2,73,29.92,10.0,SSW,17.3,25.3,N/A,,Clear,200,2012-12-03 15:15:00
9:35 AM,68.0,57.2,68,29.92,10.0,SSW,17.3,25.3,N/A,,Clear,210,2012-12-03 15:35:00
9:55 AM,68.0,57.2,68,29.93,10.0,SSW,19.6,26.5,N/A,,Partly Cloudy,200,2012-12-03 15:55:00
10:15 AM,68.0,57.2,68,29.93,10.0,SSW,13.8,25.3,N/A,,Partly Cloudy,200,2012-12-03 16:15:00
10:35 AM,69.8,57.2,64,29.93,10.0,SSW,18.4,28.8,N/A,,Scattered Clouds,200,2012-12-03 16:35:00
10:55 AM,71.6,57.2,60,29.92,10.0,SSW,21.9,34.5,N/A,,Mostly Cloudy,200,2012-12-03 16:55:00
11:15 AM,71.6,55.4,57,29.90,10.0,SSW,20.7,33.4,N/A,,Overcast,200,2012-12-03 17:15:00
11:35 AM,71.6,55.4,57,29.89,10.0,SSW,16.1,33.4,N/A,,Mostly Cloudy,200,2012-12-03 17:35:00
11:55 AM,71.6,55.4,57,29.88,10.0,SSW,21.9,31.1,N/A,,Mostly Cloudy,200,2012-12-03 17:55:00
12:15 PM,73.4,55.4,53,29.87,10.0,SSW,23.0,29.9,N/A,,Mostly Cloudy,200,2012-12-03 18:15:00
12:35 PM,73.4,55.4,53,29.86,10.0,SSW,20.7,31.1,N/A,,Mostly Cloudy,200,2012-12-03 18:35:00
12:55 PM,73.4,55.4,53,29.85,10.0,South,24.2,31.1,N/A,,Mostly Cloudy,190,2012-12-03 18:55:00
1:15 PM,73.4,55.4,53,29.85,10.0,SSW,19.6,27.6,N/A,,Mostly Cloudy,200,2012-12-03 19:15:00
1:35 PM,73.4,55.4,53,29.85,10.0,SSW,17.3,26.5,N/A,,Overcast,210,2012-12-03 19:35:00
1:55 PM,73.4,55.4,53,29.85,10.0,SSW,15.0,25.3,N/A,,Overcast,210,2012-12-03 19:55:00
2:15 PM,73.4,53.6,50,29.86,10.0,SSW,16.1,23.0,N/A,,Overcast,210,2012-12-03 20:15:00
2:35 PM,73.4,53.6,50,29.86,10.0,SSW,19.6,28.8,N/A,,Overcast,200,2012-12-03 20:35:00
2:55 PM,75.2,53.6,47,29.86,10.0,SW,17.3,25.3,N/A,,Overcast,220,2012-12-03 20:55:00
3:15 PM,73.4,53.6,50,29.86,10.0,SSW,12.7,24.2,N/A,,Overcast,200,2012-12-03 21:15:00
3:35 PM,73.4,53.6,50,29.87,10.0,SSW,16.1,19.6,N/A,,Overcast,210,2012-12-03 21:35:00
3:55 PM,73.4,51.8,47,29.87,10.0,SSW,12.7,-,N/A,,Overcast,210,2012-12-03 21:55:00
4:15 PM,73.4,51.8,47,29.88,10.0,SSW,9.2,-,N/A,,Overcast,200,2012-12-03 22:15:00
4:35 PM,71.6,51.8,50,29.89,10.0,South,8.1,-,N/A,,Overcast,190,2012-12-03 22:35:00
4:55 PM,71.6,51.8,50,29.90,10.0,South,5.8,-,N/A,,Overcast,190,2012-12-03 22:55:00
5:15 PM,71.6,51.8,50,29.91,10.0,South,5.8,-,N/A,,Overcast,190,2012-12-03 23:15:00
5:35 PM,71.6,51.8,50,29.91,10.0,South,4.6,-,N/A,,Overcast,170,2012-12-03 23:35:00
5:55 PM,69.8,51.8,53,29.92,10.0,South,4.6,-,N/A,,Overcast,180,2012-12-03 23:55:00
6:15 PM,69.8,51.8,53,29.93,10.0,South,8.1,-,N/A,,Overcast,190,2012-12-04 00:15:00
6:35 PM,69.8,51.8,53,29.93,10.0,South,6.9,-,N/A,,Overcast,190,2012-12-04 00:35:00
6:55 PM,69.8,51.8,53,29.94,10.0,SSW,8.1,-,N/A,,Overcast,200,2012-12-04 00:55:00
7:15 PM,69.8,51.8,53,29.94,10.0,SSW,9.2,-,N/A,,Overcast,200,2012-12-04 01:15:00
7:35 PM,69.8,51.8,53,29.93,10.0,South,6.9,-,N/A,,Overcast,170,2012-12-04 01:35:00
7:55 PM,68.0,51.8,56,29.93,10.0,SSW,6.9,-,N/A,,Overcast,200,2012-12-04 01:55:00
8:15 PM,66.2,51.8,60,29.93,10.0,South,6.9,-,N/A,,Mostly Cloudy,180,2012-12-04 02:15:00
8:35 PM,66.2,51.8,60,29.93,10.0,South,6.9,-,N/A,,Partly Cloudy,180,2012-12-04 02:35:00
8:55 PM,66.2,51.8,60,29.93,10.0,South,5.8,-,N/A,,Mostly Cloudy,190,2012-12-04 02:55:00
9:15 PM,66.2,51.8,60,29.93,10.0,South,9.2,-,N/A,,Overcast,180,2012-12-04 03:15:00
9:35 PM,66.2,51.8,60,29.93,10.0,South,10.4,16.1,N/A,,Overcast,180,2012-12-04 03:35:00
9:55 PM,66.2,51.8,60,29.93,10.0,South,10.4,18.4,N/A,,Overcast,190,2012-12-04 03:55:00
10:15 PM,64.4,53.6,68,29.97,10.0,NW,10.4,24.2,N/A,,Mostly Cloudy,320,2012-12-04 04:15:00
10:35 PM,60.8,55.4,82,29.99,8.0,WNW,5.8,-,0.07,,Overcast,300,2012-12-04 04:35:00
10:55 PM,60.8,55.4,82,29.99,5.0,NNW,4.6,-,0.21,,Overcast,340,2012-12-04 04:55:00
11:15 PM,57.2,53.6,88,29.99,7.0,NNW,10.4,16.1,0.10,,Overcast,340,2012-12-04 05:15:00
11:35 PM,55.4,51.8,88,29.99,8.0,North,8.1,-,0.19,,Overcast,350,2012-12-04 05:35:00